SCP
0 0 0 0 0 0 0 0 0 0 0 0 0 0 0 0 0 0 0 0 0 0 0 0 0 0 0 0 0 0 0 0 0 0 0 0 0 0 0 0 0 0 0 0
0 0 0 0 0 0 0 0 0 0 0 0 0 0 0 0 0 0 0 0 0 0 0 0 0 0 0 0 0 0 0 0 0 0 0 0 0 0 0 0 0 0 0 0
0 0 0 0 0 0 0 0 0 0 0 0 0 0 0 0 0 0 0 0 0 0 0 0 0 0 0 0 0 0 0 0 0 0 0 0 0 0 0 0 0 0 0 0
0 0 0 0 0 0 0 0 0 0 0 0 0 0 0 0 0 0 0 0 0 0 0 0 0 0 0 0 0 0 0 0 0 0 0 0 0 0 0 0 0 0 0 0
0 0 0 0 0 0 0 0 0 0 0 0 0 0 0 0 0 0 0 0 0 0 0 0 0 0 0 0 0 0 0 0 0 0 0 0 0 0 0 0 0 0 0 0
0 0 0 0 0 0 0 0 0 0 0 0 0 0 0 0 0 0 0 0 0 0 0 0 0 0 0 0 0 0 0 0 0 0 0 0 0 0 0 0 0 0 0 0
0 0 0 0 0 0 0 0 0 0 0 0 0 0 0 0 0 0 0 0 0 0 0 0 0 0 0 0 0 0 0 0 0 0 0 0 0 0 0 0 0 0 0 0
0 0 0 0 0 0 0 0 0 0 0 0 0 0 0 0 0 0 0 0 0 0 0 0 0 0 0 0 0 0 0 0 0 0 0 0 0 0 0 0 0 0 0 0
0 0 0 0 0 0 0 0 0 0 0 0 0 0 0 0 0 0 0 0 0 0 0 0 0 0 0 0 0 0 0 0 0 0 0 0 0 0 0 0 0 0 0 0
0 0 0 0 0 0 0 0 0 0 0 0 0 0 0 0 0 0 0 0 0 0 0 0 0 0 0 0 0 0 0 0 0 0 0 0 0 0 0 0 0 0 0 0
0 0 0 0 0 0 0 0 0 0 0 0 0 0 0 0 0 0 0 0 0 0 0 0 0 0 0 0 0 0 0 0 0 0 0 0 0 0 0 0 0 0 0 0
0 0 0 0 0 0 0 0 0 0 0 0 0 0 0 0 0 0 0 0 0 0 0 0 0 0 0 0 0 0 0 0 0 0 0 0 0 0 0 0 0 0 0 0
0 0 0 0 0 0 0 0 0 0 0 0 0 0 0 0 0 0 0 0 0 0 0 0 0 0 0 0 0 0 0 0 0 0 0 0 0 0 0 0 0 0 0 0
0 0 0 0 0 0 0 0 0 0 0 0 0 0 0 0 0 0 0 0 0 0 0 0 0 0 0 0 0 0 0 0 0 0 0 0 0 0 0 0 0 0 0 0
0 0 0 0 0 0 0 0 0 0 0 0 0 0 0 0 0 0 0 0 0 0 0 0 0 0 0 0 0 0 0 0 0 0 0 0 0 0 0 0 0 0 0 0
0 0 0 0 0 0 0 0 0 0 0 0 0 0 0 0 0 0 0 0 0 0 0 0 0 0 0 0 0 0 0 0 0 0 0 0 0 0 0 0 0 0 0 0
0 0 0 0 0 0 0 0 0 0 0 0 0 0 0 0 0 0 0 0 0 0 0 0 0 0 0 0 0 0 0 0 0 0 0 0 0 0 0 0 0 0 0 0
0 0 0 0 0 0 0 0 0 0 0 0 0 0 0 0 0 0 0 0 0 0 0 0 0 0 0 0 0 0 0 0 0 0 0 0 0 0 0 0 0 0 0 0
0 0 0 0 0 0 0 0 0 0 0 0 0 0 0 0 0 0 0 0 0 0 0 0 0 0 0 0 0 0 0 0 0 0 0 0 0 0 0 0 0 0 0 0
0 0 0 0 0 0 0 0 0 0 0 0 0 0 0 0 0 0 0 0 0 0 0 0 0 0 0 0 0 0 0 0 0 0 0 0 0 0 0 0 0 0 0 0
0 0 0 0 0 0 0 0 0 0 0 0 0 0 0 0 0 0 0 0 0 0 0 0 0 0 0 0 0 0 0 0 0 0 0 0 0 0 0 0 0 0 0 0
0 0 0 0 0 0 0 0 0 0 0 0 0 0 0 0 0 0 0 0 0 0 0 0 0 0 0 0 0 0 0 0 0 0 0 0 0 0 0 0 0 0 0 0
0 0 0 0 0 0 0 0 0 0 0 0 0 0 0 0 0 0 0 0 0 0 0 0 0 0 0 0 0 0 0 0 0 0 0 0 0 0 0 0 0 0 0 0
0 0 0 0 0 0 0 0 0 0 0 0 0 0 0 0 0 0 0 0 0 0 0 0 0 0 0 0 0 0 0 0 0 0 0 0 0 0 0 0 0 0 0 0
0 0 0 0 0 0 0 0 0 0 0 0 0 0 0 0 0 0 0 0 0 0 0 0 0 0 0 0 0 0 0 0 0 0 0 0 0 0 0 0 0 0 0 0
0 0 0 0 0 0 0 0 0 0 0 0 0 0 0 0 0 0 0 0 0 0 0 0 0 0 0 0 0 0 0 0 0 0 0 0 0 0 0 0 0 0 0 0
0 0 0 0 0 0 0 0 0 0 0 0 0 0 0 0 0 0 0 0 0 0 0 0 0 0 0 0 0 0 0 0 0 0 0 0 0 0 0 0 0 0 0 0
Wind_Speed
6 5 4 5 7 8 9 9 9 9 9 10 8 6 5 5 4 4 4 4 4 4 4 4 3 3 3 3 2 2 2 2 2 2 2 2 2 2 2 2 3 3 3 4
5 5 5 7 9 10 11 11 11 11 12 7 6 5 5 4 4 5 5 5 5 4 4 4 4 3 3 3 3 2 2 2 2 2 2 2 2 2 2 2 2 3 3 4
4 3 3 7 7 9 8 8 8 10 9 6 6 6 6 5 5 5 5 5 5 4 4 4 4 4 3 3 3 2 2 2 2 2 2 1 2 2 2 2 2 2 3 3
2 2 7 2 1 4 7 7 7 8 7 6 6 6 6 5 5 5 5 5 5 4 4 4 4 3 3 3 2 2 2 2 2 2 2 1 1 1 2 2 2 2 3 3
2 4 6 3 1 2 5 5 5 7 7 5 5 5 4 2 3 5 5 5 5 4 4 4 3 3 2 2 2 2 2 2 3 2 2 1 1 2 2 2 2 2 2 2
3 5 6 2 1 0 3 5 1 4 5 4 4 4 3 3 5 5 4 3 3 3 3 3 3 2 1 1 2 2 3 3 3 2 2 2 2 2 2 2 2 2 2 2
5 5 5 2 1 3 4 3 2 3 4 4 5 5 5 6 5 4 3 3 3 2 2 2 2 1 1 2 3 3 3 2 2 2 2 2 1 1 2 1 2 2 2 3
4 5 5 1 2 3 3 4 3 4 4 5 5 5 5 5 4 4 3 3 2 2 2 2 1 1 1 2 3 3 2 2 2 3 2 2 1 1 1 1 2 2 2 2
5 4 2 1 2 2 3 4 4 4 4 4 5 5 5 4 4 3 3 2 2 2 1 2 1 1 2 2 2 2 2 2 2 2 2 2 2 2 1 1 1 2 2 2
5 5 4 4 4 4 4 5 5 4 4 4 4 4 4 3 3 2 2 2 2 1 1 2 2 2 2 2 2 2 2 2 2 2 2 2 2 2 1 1 1 2 2 2
6 6 5 4 4 5 5 5 5 5 4 4 4 4 3 3 3 2 2 2 1 1 2 2 2 2 2 2 2 1 1 2 2 2 2 2 2 2 2 2 2 2 2 3
5 3 4 5 5 5 5 5 5 5 4 3 3 3 3 3 2 2 2 1 2 2 2 2 2 2 2 2 1 1 1 1 1 2 2 2 2 2 3 3 4 4 4 3
5 5 6 6 5 4 4 5 4 4 3 3 2 2 2 2 2 2 2 1 2 2 2 2 2 2 2 2 1 1 1 1 1 1 2 2 2 2 2 3 3 4 5 5
5 5 5 5 4 4 4 4 3 2 2 1 1 1 1 1 1 1 2 2 2 2 2 2 2 2 2 1 1 1 1 1 2 1 1 2 2 2 2 3 3 3 4 5
5 5 5 4 3 3 2 2 1 1 1 1 1 0 0 1 1 2 2 1 1 1 1 2 2 2 2 1 1 1 1 1 1 1 1 1 1 2 2 2 3 3 3 4
3 3 3 3 3 2 1 1 1 1 2 2 1 1 1 1 1 1 1 0 1 1 2 2 2 3 2 1 1 1 1 1 2 1 1 1 1 1 2 2 2 3 3 3
2 2 2 3 3 3 3 3 3 2 2 2 2 1 1 1 0 1 1 1 1 1 2 2 2 2 2 1 1 1 1 1 1 1 1 1 1 2 2 2 2 3 3 3
5 4 4 4 3 4 3 3 2 2 2 2 1 1 1 1 1 1 2 1 1 1 2 2 2 2 1 1 1 1 1 1 1 1 1 1 1 1 2 2 2 3 3 3
2 3 3 3 3 3 3 3 2 2 2 1 1 1 2 1 1 1 1 1 1 1 2 2 2 1 1 1 1 1 1 1 1 1 1 1 2 2 2 2 2 2 3 3
1 1 2 2 1 2 2 2 1 1 1 1 1 1 1 1 1 1 1 1 1 2 2 2 1 1 1 1 1 1 1 1 1 1 1 1 1 2 2 2 2 2 3 3
1 1 1 1 1 1 1 1 1 1 1 1 2 2 1 1 1 1 1 1 2 2 2 2 1 1 1 1 1 1 1 1 1 1 1 1 2 2 2 2 2 2 3 3
1 1 1 1 1 1 1 1 1 1 1 1 1 1 1 1 1 1 2 2 2 2 2 1 1 1 1 1 1 0 1 1 1 1 1 2 2 2 2 2 2 2 2 2
1 1 1 1 1 1 1 0 1 1 1 1 1 1 2 1 1 1 2 2 2 3 2 1 1 1 1 1 0 1 1 1 1 1 2 2 2 2 2 3 3 3 3 3
1 1 1 0 1 1 0 1 1 1 1 1 1 2 2 1 1 1 2 2 3 2 1 1 2 1 1 1 1 1 1 1 1 2 2 2 2 2 2 2 3 3 3 3
1 1 1 1 1 1 1 1 0 0 0 0 1 1 1 1 1 1 1 1 2 2 1 2 2 2 1 1 1 1 1 2 2 2 2 2 2 2 3 3 3 3 3 3
1 1 1 2 1 1 1 1 1 1 0 1 1 1 1 1 1 1 1 1 1 1 1 1 1 2 1 1 1 2 2 2 2 2 2 2 3 3 3 3 4 3 3 3
1 1 1 1 1 1 1 1 1 1 1 1 1 1 1 1 1 1 1 1 1 1 1 1 1 1 2 2 2 2 2 2 2 2 2 2 2 3 3 4 3 3 3 3
Wind_Direction
260 268 249 244 241 221 217 230 243 256 262 274 278 281 280 276 276 283 287 294 299 302 308 312 312 309 305 309 312 307 303 306 302 303 300 294 290 288 290 276 264 261 256 253
256 248 249 262 257 241 239 241 246 260 269 284 287 285 279 274 270 274 282 290 294 295 301 305 306 302 300 303 306 299 292 296 302 301 298 296 299 298 298 297 283 270 261 258
257 274 257 256 248 233 232 233 234 247 262 289 286 282 277 278 273 279 284 290 290 290 293 297 301 297 294 298 300 293 296 305 308 304 301 305 313 315 320 315 303 286 275 265
259 242 245 270 72 230 232 245 239 253 274 281 285 289 282 273 268 279 291 293 290 289 296 300 303 301 301 304 306 307 319 319 320 325 336 347 340 339 333 322 314 308 299 289
220 248 267 272 237 218 228 254 239 251 274 301 311 286 269 266 275 283 286 285 284 283 289 295 298 296 296 299 312 328 325 317 322 325 331 336 334 329 321 320 322 316 308 309
216 243 255 316 33 270 216 253 230 246 267 289 293 278 298 323 306 300 292 286 288 288 291 294 302 293 283 304 319 325 322 316 321 324 324 319 316 311 318 320 324 330 333 326
227 243 263 329 37 179 228 302 0 267 270 264 268 286 307 310 308 304 296 297 298 293 297 301 301 283 287 315 318 322 324 332 331 330 328 318 317 321 329 336 338 340 340 337
210 227 253 96 148 215 293 326 291 283 279 275 288 296 296 300 306 308 310 313 309 305 318 326 316 286 295 311 321 324 334 347 343 341 342 340 334 334 335 336 333 337 339 340
223 243 328 187 232 280 301 289 296 297 294 287 289 291 294 297 300 300 306 314 314 306 328 341 327 307 306 322 330 333 343 345 346 347 349 348 341 338 337 334 331 332 331 335
257 265 274 267 268 286 295 293 302 302 296 284 284 288 295 295 297 302 307 321 322 316 331 332 330 320 313 317 320 319 327 336 342 342 347 352 351 348 346 336 327 321 322 325
257 276 291 264 274 291 295 293 293 297 287 277 275 276 280 281 284 288 291 308 301 290 300 312 321 320 318 314 313 318 325 332 338 338 332 344 354 358 344 346 333 316 314 314
257 266 267 287 293 289 283 284 285 289 289 281 261 260 268 269 273 272 275 296 299 298 306 313 318 323 323 319 306 308 322 332 340 339 337 336 336 354 19 358 358 352 341 324
265 279 279 289 293 296 288 288 286 277 270 278 278 265 262 266 267 265 262 273 283 293 301 308 314 322 325 323 313 303 314 326 332 334 335 335 334 330 336 352 0 359 357 348
267 271 274 280 289 299 297 300 295 285 278 279 286 284 274 279 274 268 272 282 292 298 304 310 315 321 328 328 324 317 325 332 318 323 330 328 328 328 328 330 333 338 347 353
262 262 270 284 292 303 316 316 318 319 330 343 343 290 254 263 277 292 302 307 306 310 314 317 314 323 338 335 326 323 322 320 317 325 325 320 322 324 326 326 327 328 329 340
283 276 261 265 278 295 313 292 272 288 298 304 306 297 289 281 288 307 315 301 263 288 303 305 302 315 326 315 300 302 316 336 323 314 319 324 325 325 326 327 329 331 334 336
258 263 263 267 271 273 263 260 255 256 262 264 278 299 306 313 312 325 331 319 296 286 290 290 299 313 314 298 282 291 307 325 325 315 318 321 320 321 320 322 326 326 328 337
256 256 247 242 247 255 266 268 256 252 253 261 278 261 231 227 259 292 310 324 332 326 313 313 311 313 310 303 289 286 291 303 306 309 313 318 315 314 313 316 321 321 321 329
263 254 249 246 249 246 250 257 255 254 260 233 210 231 248 258 274 293 301 300 301 310 321 322 316 318 314 306 298 274 278 288 298 311 312 313 313 313 312 316 320 323 322 321
291 275 261 261 255 232 238 250 250 252 247 207 200 220 255 282 294 285 268 262 286 303 313 318 315 308 309 305 298 275 270 278 291 302 303 301 307 313 315 314 316 317 318 318
284 282 271 265 277 263 242 235 224 236 250 203 199 221 250 276 273 257 257 286 319 323 321 323 318 301 299 298 270 265 259 276 296 305 305 303 303 308 311 315 315 313 312 313
263 260 263 258 258 286 287 256 219 211 217 220 210 206 229 264 268 266 266 281 307 315 316 310 313 317 330 310 283 275 273 278 285 292 295 297 298 303 309 311 309 308 307 307
262 252 247 246 249 270 297 289 222 208 211 215 210 214 231 253 257 259 288 299 304 313 317 309 320 337 353 331 315 300 294 289 287 287 290 293 293 296 299 300 301 302 303 304
253 252 256 248 182 185 295 328 320 276 251 248 230 226 234 250 262 266 291 295 306 317 330 335 350 1 353 345 328 306 297 294 291 286 285 285 286 288 288 291 294 296 296 297
235 232 215 197 200 224 262 303 333 321 308 286 278 259 253 259 265 288 302 297 307 330 332 332 344 353 351 330 319 306 297 291 290 289 286 287 287 288 289 289 289 289 288 286
224 232 234 237 238 230 221 220 239 261 268 289 312 312 312 314 302 304 308 318 318 329 340 341 336 336 326 315 308 305 301 300 300 298 294 293 293 293 291 290 291 287 286 284
220 217 214 235 217 203 210 217 225 238 241 242 263 277 297 310 304 315 323 326 325 334 330 327 324 320 316 311 306 305 302 300 300 298 295 292 290 289 289 289 288 287 285 282